Weather in Chernjanka

Russia / Belgorod Oblast     50°56′20″N   37°48′22″E
temp.,
°C
wind,
m/s
gust,
m/s
humid.,
%
clouds,
%
prec.,
mm/h
press.,
hPa
HPBL,
m
23 april, fri
fri2300:00+11s3570100 0.0 102099
03:00+9s347699 0.0 102052
06:00+9s367993 0.0 1020142
09:00+13s57625 0.0 1019625
12:00+16ssw684910 0.5 10182036
15:00+16ssw6846100 0.5 10162379
18:00+13s496371 0.1 1014351
21:00+11sw61276100 0.3 1014536
24 april, sat
sat2400:00+10sw6989100 1.3 1013812
03:00+6wnw6890100 1.5 1013991
06:00+5w278481 0.6 1014452
09:00+8w576539 0.8 10131162
12:00+9w81052100 1.0 10142028
15:00+10w91139100 1.0 10142726
18:00+6wnw81174100 0.4 1015985
21:00+4w611655 0.4 1016889
25 april, sun
sun2500:00+3w612745 0.0 1017755
03:00+2w512771 0.0 1018455
06:00+1wsw410805 0.0 1019289
09:00+6w68545 0.0 10191127
12:00+9wsw6739100 0.0 10192664
15:00+10sw6835100 0.0 10182605
18:00+10ssw584587 0.0 10161165
21:00+7w5876100 0.1 1018685
26 april, mon
mon2600:00+5wsw258699 0.7 1018413
03:00+5w2491100 3.2 1017663
06:00+4wnw2395100 1.0 1017506
09:00+4w2380100 1.4 1017573
12:00+7w3459100 0.1 10161288
15:00+9w5647100 0.3 10151844
18:00+8w474810 0.0 10151912
21:00+4wsw336638 0.0 101648
27 april, tue
tue2700:00+3wsw387646 0.0 1016180
03:00+2wsw37885 0.0 1016143
06:00+1w2485100 0.0 101795
09:00+6wsw2355100 0.0 1017604
12:00+9ssw4449100 0.0 10161629
15:00+7sse3472100 0.4 1014905
18:00+4se3493100 4.4 1014579
21:00+4n1396100 6.1 1014721